Location: Banff
(51.1670°N, 115.5670°W)
Time: 12:49:17
(UTC-06:00)

Amateur Radio Satellites - All Passes

Search period start: 25 May 2016 12:19
Search period end: 26 May 2016 12:19
Location: Banff, 51.1670°N, 115.5670°W

Satellite Date Start Highest point End Downlink Frequencies (MHz)
Time Altitude Azimuth
AO-85 25 May 12:19:29 12:22:56 17° 358° (N) 12:26:14 145.980
O/OREOS (USA 219) 25 May 12:24:32 12:28:52 41° 306° (NW) 12:33:12 437.305
UKube-1 25 May 12:24:50 12:26:22 12° 87° (E) 12:27:54 .
ESTCUBE 1 25 May 12:28:38 12:32:31 27° 94° (E) 12:36:21 437.505/2401.250
JAS-2 25 May 12:31:08 12:38:03 43° 60° (ENE) 12:45:20 435.910
50 SAT 25 May 12:31:42 12:34:28 19° 92° (E) 12:37:12 437.505
DANDE 25 May 12:31:59 12:36:07 20° 76° (ENE) 12:40:56 436.750
GONETS M04 25 May 12:33:53 12:39:47 21° 286° (WNW) 12:45:42
DUCHIFAT 1 25 May 12:46:22 12:50:26 46° 261° (W) 12:54:31 145.980
DELFI C3 25 May 12:48:59 12:52:14 24° 297° (WNW) 12:55:28 145.870
Oscar 11 25 May 12:51:02 12:53:38 16° 303° (WNW) 12:56:13 145.826/435.025
CUSAT 1 25 May 12:58:33 13:04:50 59° 94° (E) 13:12:27 437.405
ZACube-1 25 May 13:00:35 13:02:38 14° 303° (WNW) 13:04:42 437.345
CUBEBUG 1 25 May 13:01:16 13:05:23 37° 97° (E) 13:09:26 437.445
VELOX 1 25 May 13:01:25 13:05:33 36° 97° (E) 13:09:38 145.980
AO-7 25 May 13:01:51 13:06:00 15° 27° (NNE) 13:10:09 29.400- 29.500
DX 1 25 May 13:04:56 13:08:55 33° 96° (E) 13:12:51 434.975-435.025
Oscar 19 25 May 13:06:58 13:11:33 32° 62° (ENE) 13:16:09 437.125/150
BEESAT 2 25 May 13:09:37 13:12:29 19° 115° (ESE) 13:15:23 435.950
Gurwin Techsat 1B 25 May 13:10:44 13:14:21 19° 54° (NE) 13:17:56 435.225
BUGSAT 1 25 May 13:15:10 13:19:13 46° 260° (W) 13:23:17 437.445
POPSAT HIP 1 25 May 13:22:45 13:25:57 21° 268° (W) 13:29:10 437.405
QB50P1 25 May 13:23:28 13:26:37 20° 268° (W) 13:29:48 145.935-145.965
QB50P2 25 May 13:25:02 13:28:03 19° 269° (W) 13:31:05 145.880/145.840
HO-68 25 May 13:26:57 13:29:33 12° 326° (NNW) 13:32:10 435.675
POLYITAN 1 25 May 13:27:32 13:30:30 18° 269° (W) 13:33:29 437.675
HUMSAT D 25 May 13:29:59 13:33:05 21° 298° (WNW) 13:36:12 437.325/437.525
AISAT 25 May 13:37:01 13:41:30 81° 103° (ESE) 13:45:55 437.250
SPROUT 25 May 13:39:51 13:43:51 37° 97° (E) 13:47:48 437.525
NANOSAT C BR1 25 May 13:44:34 13:46:45 14° 272° (W) 13:48:56 145.865
ITAMSAT 1 25 May 13:44:57 13:48:01 16° 52° (NE) 13:51:06 435.822/435.867
BEESAT 3 25 May 13:48:03 13:51:57 66° 127° (SE) 13:55:54 437.485
Cosmos 2491 25 May 13:53:21 13:58:37 17° 44° (NE) 14:03:51 435.465 / 435.565
UKube-1 25 May 13:58:44 14:03:06 88° 99° (E) 14:07:26 .
PCSat 25 May 14:00:36 14:05:07 26° 330° (NNW) 14:09:39 145.827
AO-85 25 May 14:00:59 14:05:06 24° 23° (NNE) 14:08:57 145.980
50 SAT 25 May 14:04:52 14:08:24 41° 291° (WNW) 14:11:55 437.505
ESTCUBE 1 25 May 14:05:10 14:09:30 43° 292° (WNW) 14:13:48 437.505/2401.250
O/OREOS (USA 219) 25 May 14:08:27 14:09:33 11° 329° (NNW) 14:10:39 437.305
DANDE 25 May 14:12:06 14:17:42 87° 278° (W) 14:25:06 436.750
TISAT 1 25 May 14:13:32 14:17:04 26° 94° (E) 14:20:33 437.305
JAS-2 25 May 14:15:35 14:22:50 57° 262° (W) 14:30:36 435.910
CUBEBUG 1 25 May 14:37:45 14:41:35 30° 296° (WNW) 14:45:22 437.445
VELOX 1 25 May 14:38:02 14:41:58 31° 296° (WNW) 14:45:52 145.980
DX 1 25 May 14:41:10 14:45:06 33° 295° (WNW) 14:49:00 434.975-435.025
CUSAT 1 25 May 14:41:18 14:47:26 38° 299° (WNW) 14:54:38 437.405
Oscar 19 25 May 14:45:46 14:50:45 46° 261° (W) 14:55:46 437.125/150
BEESAT 2 25 May 14:46:00 14:49:58 64° 315° (NW) 14:53:57 435.950
Gurwin Techsat 1B 25 May 14:48:18 14:53:37 90° 256° (WSW) 14:58:59 435.225
AO-7 25 May 14:49:06 14:56:33 39° 52° (NE) 15:04:02 29.400- 29.500
AIST 2 25 May 14:58:43 15:01:37 19° 114° (ESE) 15:04:32 435.215
AISAT 25 May 15:14:41 15:17:25 16° 304° (NW) 15:20:08 437.250
SPROUT 25 May 15:16:03 15:19:42 28° 296° (WNW) 15:23:19 437.525
SWISSCUBE 25 May 15:21:05 15:25:16 29° 95° (E) 15:29:27 437.505
ITAMSAT 1 25 May 15:21:33 15:26:43 78° 71° (ENE) 15:31:55 435.822/435.867
ITUPSAT 1 25 May 15:25:54 15:30:05 29° 95° (E) 15:34:16 437.325
BEESAT 3 25 May 15:26:40 15:30:01 25° 328° (NNW) 15:33:21 437.485
UKube-1 25 May 15:36:09 15:38:33 15° 305° (NW) 15:40:57 .
AO-85 25 May 15:41:28 15:46:24 76° 47° (NE) 15:50:51 145.980
PCSat 25 May 15:47:19 15:50:27 15° 356° (N) 15:53:33 145.827
TISAT 1 25 May 15:48:57 15:52:52 38° 293° (WNW) 15:56:43 437.305
Cosmos 2491 25 May 15:49:16 15:57:55 56° 71° (ENE) 16:06:27 435.465 / 435.565
BEESAT 25 May 15:50:51 15:55:30 48° 100° (E) 16:00:07 436.000
DANDE 25 May 15:57:10 16:01:57 23° 309° (NW) 16:07:35 436.750
YUBILEINY 25 May 15:59:29 16:05:44 23° 75° (ENE) 16:12:00 435.215
JAS-2 25 May 16:06:15 16:09:40 13° 284° (WNW) 16:13:09 435.910
HORYU 2 25 May 16:19:00 16:22:29 23° 60° (ENE) 16:25:59 437.375
BEESAT 2 25 May 16:25:45 16:28:33 18° 336° (NNW) 16:31:22 435.950
CUSAT 1 25 May 16:29:30 16:32:15 12° 324° (NW) 16:35:07 437.405
Gurwin Techsat 1B 25 May 16:31:12 16:34:21 16° 274° (W) 16:37:31 435.225
AIST 2 25 May 16:35:33 16:39:40 69° 314° (NW) 16:43:50 435.215
AO-7 25 May 16:40:41 16:48:57 68° 254° (WSW) 16:57:17 29.400- 29.500
CUTE-I 25 May 16:44:48 16:45:25 10° 45° (NE) 16:46:02 437.470
SWISSCUBE 25 May 16:58:40 17:03:13 43° 294° (WNW) 17:07:45 437.505
RS-15 25 May 16:58:58 17:05:44 18° 94° (E) 17:12:39 29.354- 29.394
ITAMSAT 1 25 May 17:03:21 17:06:49 18° 271° (W) 17:10:19 435.822/435.867
ITUPSAT 1 25 May 17:03:32 17:08:05 43° 293° (WNW) 17:12:37 437.325
BEESAT 3 25 May 17:07:22 17:09:01 12° 352° (N) 17:10:39 437.485
NOAA 18 25 May 17:13:07 17:17:02 21° 53° (NE) 17:20:56 137.9125
BRITE-PL 25 May 17:15:45 17:19:34 19° 54° (NE) 17:23:23 437.365/2234.400
MOZHAYETS 4 25 May 17:22:55 17:27:21 43° 98° (E) 17:31:45
AO-85 25 May 17:22:57 17:26:16 19° 249° (WSW) 17:29:23 145.980
KKS-1 25 May 17:24:38 17:29:01 55° 101° (E) 17:33:22 437.445
BEESAT 25 May 17:29:03 17:33:05 28° 299° (WNW) 17:37:07 436.000
PCSat 25 May 17:32:00 17:35:58 20° 22° (NNE) 17:39:56 145.827
Cubesat XI-IV 25 May 17:33:32 17:37:32 22° 56° (NE) 17:41:34 437.490
NOAA 15 25 May 17:36:23 17:41:00 31° 60° (ENE) 17:45:37 137.62
Cosmos 2491 25 May 17:46:31 17:54:33 42° 275° (W) 18:02:30 435.465 / 435.565
GOMX 1 25 May 17:52:29 17:56:09 19° 56° (NE) 17:59:46 467.674
YUBILEINY 25 May 17:52:36 18:01:19 87° 98° (E) 18:10:04 435.215
HORYU 2 25 May 17:54:28 17:58:46 51° 259° (W) 18:03:07 437.375
BEESAT 2 25 May 18:06:27 18:07:55 12° 0° (N) 18:09:23 435.950
STARS 25 May 18:06:41 18:11:06 77° 105° (ESE) 18:15:27 437.465
AIST 2 25 May 18:15:50 18:18:53 19° 336° (NNW) 18:21:57 435.215
CUTE-I 25 May 18:19:12 18:24:14 45° 66° (ENE) 18:29:18 437.470
Cosmos 2504 25 May 18:26:40 18:33:26 45° 88° (E) 18:40:36 435.465 / 435.565
HO-68 25 May 18:38:13 18:43:12 21° 45° (NE) 18:48:12 435.675
AO-7 25 May 18:38:29 18:43:22 17° 276° (W) 18:48:18 29.400- 29.500
LilacSat-2 25 May 18:38:41 18:42:21 49° 71° (ENE) 18:46:02 437.200
CUBESAT XI-V 25 May 18:42:00 18:46:21 35° 96° (E) 18:50:40 437.345
BEESAT 3 25 May 18:46:10 18:48:19 14° 16° (NNE) 18:50:27 437.485
BRITE-PL 25 May 18:51:35 18:57:15 82° 74° (ENE) 19:02:59 437.365/2234.400
NOAA 18 25 May 18:51:36 18:57:04 85° 254° (WSW) 19:02:34 137.9125
DOVE 4 25 May 18:51:58 18:56:17 27° 62° (ENE) 19:00:27 437.250
MOZHAYETS 4 25 May 19:00:26 19:04:22 28° 297° (WNW) 19:08:19
KKS-1 25 May 19:01:52 19:05:17 22° 300° (WNW) 19:08:40 437.445
RS-15 25 May 19:04:19 19:15:29 64° 119° (ESE) 19:27:17 29.354- 29.394
CUTE 1.7 + AOD 2 25 May 19:09:59 19:11:17 11° 54° (NE) 19:12:34 437.475
O/OREOS (USA 219) 25 May 19:10:56 19:14:40 24° 46° (NE) 19:18:21 437.305
Cubesat XI-IV 25 May 19:11:48 19:17:07 75° 256° (WSW) 19:22:28 437.490
PCSat 25 May 19:15:14 19:20:35 54° 45° (NE) 19:25:54 145.827
NOAA 15 25 May 19:15:25 19:20:34 50° 260° (W) 19:25:47 137.62
GOMX 1 25 May 19:28:03 19:33:34 87° 75° (ENE) 19:38:58 467.674
AUBIESAT-1 25 May 19:31:55 19:35:34 33° 61° (ENE) 19:38:59 437.475
M-CUBED/EXP-1 PRIME 25 May 19:36:17 19:40:14 43° 63° (ENE) 19:43:54 437.505
COMPASS 1 25 May 19:39:32 19:41:07 12° 55° (NE) 19:42:41 437.405
CINEMA 3 25 May 19:39:35 19:43:17 23° 62° (ENE) 19:46:52 145.822/145.860
STARS 25 May 19:44:10 19:46:57 17° 303° (WNW) 19:49:42 437.465
BEESAT 2 25 May 19:44:25 19:47:17 18° 24° (NNE) 19:50:08 435.950
AAUSAT CUBESAT 2 25 May 19:44:45 19:45:55 11° 54° (NE) 19:47:05 437.432
YUBILEINY 25 May 19:52:10 19:59:20 28° 303° (WNW) 20:06:34 435.215
AIST 2 25 May 19:57:05 19:58:55 12° 360° (N) 20:00:43 435.215
CUTE-I 25 May 19:59:43 20:04:27 32° 265° (W) 20:09:13 437.470
LilacSat-2 25 May 20:14:23 20:16:57 17° 269° (W) 20:19:31 437.200
CANX-2 25 May 20:14:43 20:18:42 44° 69° (ENE) 20:22:44 2200.000
CUBESAT XI-V 25 May 20:19:27 20:23:44 35° 295° (WNW) 20:27:59 437.345
Cosmos 2504 25 May 20:19:57 20:26:51 45° 292° (WNW) 20:34:13 435.465 / 435.565
SEEDS 25 May 20:22:05 20:25:53 35° 67° (ENE) 20:29:43 437.485
HO-68 25 May 20:22:44 20:29:50 71° 67° (ENE) 20:36:58 435.675
BEESAT 3 25 May 20:23:22 20:27:05 36° 38° (NE) 20:30:46 437.485
DOVE 4 25 May 20:28:35 20:33:43 55° 260° (W) 20:38:40 437.250
BRITE-PL 25 May 20:32:17 20:36:22 20° 273° (W) 20:40:27 437.365/2234.400
NOAA 18 25 May 20:35:26 20:38:34 15° 273° (W) 20:41:42 137.9125
Oscar 11 25 May 20:39:01 20:41:48 17° 58° (ENE) 20:44:36 145.826/435.025
CUTE 1.7 + AOD 2 25 May 20:42:10 20:46:22 72° 73° (ENE) 20:50:36 437.475
CUBEBUG 2 25 May 20:43:38 20:47:27 30° 65° (ENE) 20:51:10 437.445
STRAND 1 25 May 20:44:13 20:49:11 46° 99° (E) 20:54:08 437.568
ZACube-1 25 May 20:48:50 20:51:42 18° 60° (ENE) 20:54:32 437.345
O/OREOS (USA 219) 25 May 20:50:00 20:54:25 57° 247° (WSW) 20:58:48 437.305
Cubesat XI-IV 25 May 20:55:54 20:58:08 13° 276° (W) 21:00:24 437.490
PCSat 25 May 20:58:58 21:03:49 34° 246° (WSW) 21:08:38 145.827
AUBIESAT-1 25 May 21:06:29 21:10:05 29° 257° (WSW) 21:13:29 437.475
GOMX 1 25 May 21:08:44 21:12:17 17° 273° (W) 21:15:49 467.674
AIST 1 25 May 21:11:35 21:12:54 11° 80° (E) 21:14:13
M-CUBED/EXP-1 PRIME 25 May 21:11:36 21:14:56 23° 259° (W) 21:18:06 437.505
COMPASS 1 25 May 21:11:50 21:15:58 79° 76° (ENE) 21:20:10 437.405
CINEMA 3 25 May 21:15:31 21:20:10 54° 260° (W) 21:24:38 145.822/145.860
UWE-3 25 May 21:16:29 21:20:32 42° 69° (ENE) 21:24:32 435.000/436.395/437.385
AAUSAT CUBESAT 2 25 May 21:16:32 21:20:38 72° 74° (ENE) 21:24:49 437.432
RS-15 25 May 21:16:50 21:28:19 60° 327° (NNW) 21:40:26 29.354- 29.394
HUMSAT D 25 May 21:18:22 21:18:54 10° 54° (NE) 21:19:26 437.325/437.525
PRISM 25 May 21:19:11 21:22:18 20° 92° (E) 21:25:25 437.425
DANDE 25 May 21:21:21 21:23:38 11° 35° (NE) 21:25:56 436.750
BEESAT 2 25 May 21:21:50 21:25:51 67° 46° (NE) 21:29:49 435.950
FUNcube-1 25 May 21:26:54 21:30:45 35° 67° (ENE) 21:34:34 145.935
AIST 2 25 May 21:35:54 21:38:56 19° 24° (NNE) 21:41:57 435.215
CUSAT 1 25 May 21:46:08 21:51:49 21° 48° (NE) 21:57:12 437.405
GONETS M04 25 May 21:48:30 21:55:20 26° 78° (ENE) 22:02:08
CANX-2 25 May 21:51:25 21:54:47 23° 268° (W) 21:58:10 2200.000
SEEDS 25 May 21:58:02 22:01:39 28° 266° (W) 22:05:19 437.485
BEESAT 3 25 May 22:01:08 22:04:47 36° 238° (WSW) 22:08:25 437.485
DELFI C3 25 May 22:04:23 22:08:12 48° 70° (ENE) 22:12:05 145.870
HO-68 25 May 22:12:08 22:18:10 29° 268° (W) 22:24:15 435.675
Oscar 11 25 May 22:13:11 22:17:28 71° 258° (WSW) 22:21:47 145.826/435.025
CUBEBUG 2 25 May 22:20:00 22:24:02 35° 263° (W) 22:27:59 437.445
Cosmos 2504 25 May 22:20:09 22:22:51 12° 319° (NW) 22:25:37 435.465 / 435.565
CUTE 1.7 + AOD 2 25 May 22:20:24 22:22:44 14° 272° (W) 22:25:04 437.475
ZACube-1 25 May 22:23:24 22:27:36 63° 258° (WSW) 22:31:46 437.345
STRAND 1 25 May 22:23:42 22:28:13 32° 298° (WNW) 22:32:44 437.568
CUBEBUG 1 25 May 22:30:06 22:30:44 10° 51° (NE) 22:31:23 437.445
VELOX 1 25 May 22:31:07 22:32:08 11° 51° (NE) 22:33:10 145.980
AIST 1 25 May 22:45:20 22:49:45 86° 99° (E) 22:54:12
HUMSAT D 25 May 22:49:43 22:53:46 69° 73° (ENE) 22:57:51 437.325/437.525
COMPASS 1 25 May 22:50:12 22:52:07 13° 273° (W) 22:54:03 437.405
UWE-3 25 May 22:53:42 22:57:12 24° 267° (W) 23:00:39 435.000/436.395/437.385
PRISM 25 May 22:53:50 22:57:55 50° 291° (WNW) 23:01:57 437.425
AAUSAT CUBESAT 2 25 May 22:54:28 22:56:40 14° 273° (W) 22:58:52 437.432
BEESAT 2 25 May 23:00:30 23:03:17 18° 245° (WSW) 23:06:03 435.950
DANDE 25 May 23:02:01 23:09:23 33° 59° (ENE) 23:16:38 436.750
FUNcube-1 25 May 23:03:27 23:07:05 28° 265° (W) 23:10:42 145.935
AISAT 25 May 23:04:13 23:07:31 21° 59° (ENE) 23:10:50 437.250
Cosmos 2499 25 May 23:07:28 23:14:10 41° 86° (E) 23:21:19 435.465 / 435.565
AIST 2 25 May 23:14:00 23:18:10 66° 46° (NE) 23:22:18 435.215
50 SAT 25 May 23:15:04 23:17:49 20° 63° (ENE) 23:20:34 437.505
UNISAT 6 25 May 23:16:32 23:19:48 21° 92° (E) 23:23:05 437.425
UKube-1 25 May 23:23:24 23:26:39 21° 60° (ENE) 23:29:54 .
TIGRISAT 25 May 23:24:41 23:28:08 23° 93° (E) 23:31:36 435.000
CUSAT 1 25 May 23:27:38 23:35:42 66° 72° (ENE) 23:42:45 437.405
ISS 25 May 23:31:14 23:33:44 20° 144° (SE) 23:36:15 145.825
RS-15 25 May 23:32:26 23:43:39 43° 0° (N) 23:55:15 29.354- 29.394
ESTCUBE 1 25 May 23:32:50 23:37:07 44° 68° (ENE) 23:41:27 437.505/2401.250
DELFI C3 25 May 23:40:30 23:43:22 19° 269° (W) 23:46:15 145.870
GONETS M04 25 May 23:42:19 23:51:09 85° 281° (W) 23:59:58
ANTELSAT 25 May 23:57:16 00:01:27 49° 100° (E) 00:05:39 437.575/2403.000
CUBEBUG 1 26 May 00:01:46 00:06:08 59° 71° (ENE) 00:10:31 437.445
VELOX 1 26 May 00:03:20 00:07:44 61° 71° (ENE) 00:12:10 145.980
DX 1 26 May 00:05:01 00:09:18 55° 70° (ENE) 00:13:37 434.975-435.025
AIST 1 26 May 00:25:44 00:28:02 14° 300° (WNW) 00:30:21
DUCHIFAT 1 26 May 00:25:50 00:28:53 19° 91° (E) 00:31:55 145.980
HUMSAT D 26 May 00:27:40 00:29:53 14° 272° (W) 00:32:08 437.325/437.525
SPROUT 26 May 00:38:03 00:42:15 55° 71° (ENE) 00:46:28 437.525
AISAT 26 May 00:39:11 00:43:37 62° 258° (WSW) 00:48:05 437.250
DANDE 26 May 00:44:41 00:53:06 80° 261° (W) 01:01:10 436.750
50 SAT 26 May 00:47:54 00:51:20 40° 261° (W) 00:54:49 437.505
BUGSAT 1 26 May 00:52:34 00:55:19 17° 90° (E) 00:58:04 437.445
UNISAT 6 26 May 00:52:40 00:56:49 50° 290° (WNW) 01:00:59 437.425
AIST 2 26 May 00:53:14 00:56:15 20° 245° (WSW) 00:59:16 435.215
UKube-1 26 May 00:58:05 01:02:21 57° 258° (WSW) 01:06:39 .
SWISSCUBE 26 May 00:58:37 01:00:06 11° 50° (NE) 01:01:35 437.505
Cosmos 2499 26 May 01:00:05 01:07:09 50° 290° (WNW) 01:14:49 435.465 / 435.565
TIGRISAT 26 May 01:00:59 01:05:03 44° 291° (WNW) 01:09:08 435.000
POPSAT HIP 1 26 May 01:01:01 01:05:04 44° 99° (E) 01:09:06 437.405
QB50P1 26 May 01:01:37 01:05:41 46° 99° (E) 01:09:43 145.935-145.965
QB50P2 26 May 01:03:11 01:07:18 50° 100° (E) 01:11:23 145.880/145.840
ITUPSAT 1 26 May 01:03:41 01:05:10 11° 50° (NE) 01:06:41 437.325
POLYITAN 1 26 May 01:05:37 01:09:44 51° 100° (E) 01:13:49 437.675
ISS 26 May 01:06:33 01:09:48 70° 163° (SSE) 01:13:04 145.825
TISAT 1 26 May 01:09:49 01:13:44 38° 67° (ENE) 01:17:39 437.305
ESTCUBE 1 26 May 01:10:21 01:14:08 26° 267° (W) 01:17:56 437.505/2401.250
CUSAT 1 26 May 01:10:21 01:17:20 35° 275° (W) 01:23:35 437.405
PHONESAT 2.4 26 May 01:10:56 01:11:09 10° 168° (SSE) 01:11:23 2401.200-2431.200
JAS-2 26 May 01:20:38 01:26:34 24° 84° (E) 01:32:04 435.910
NANOSAT C BR1 26 May 01:21:09 01:25:21 69° 103° (ESE) 01:29:30 145.865
BEESAT 26 May 01:26:41 01:29:44 17° 55° (NE) 01:32:48 436.000
ANTELSAT 26 May 01:34:35 01:37:55 23° 298° (WNW) 01:41:17 437.575/2403.000
CUBEBUG 1 26 May 01:39:37 01:42:48 19° 270° (W) 01:46:01 437.445
VELOX 1 26 May 01:41:27 01:44:36 19° 270° (W) 01:47:46 145.980
GONETS M04 26 May 01:42:30 01:49:26 25° 305° (NW) 01:56:23
DX 1 26 May 01:42:36 01:45:50 20° 268° (W) 01:49:06 434.975-435.025
RS-15 26 May 01:47:00 01:59:03 60° 32° (NNE) 02:11:16 29.354- 29.394
YUBILEINY 26 May 02:00:23 02:05:47 17° 46° (NE) 02:11:11 435.215
DUCHIFAT 1 26 May 02:00:49 02:04:54 52° 290° (WNW) 02:08:57 145.980
SO-50 26 May 02:14:12 02:18:55 48° 123° (ESE) 02:23:38 436.795
SPROUT 26 May 02:15:28 02:18:33 19° 269° (W) 02:21:39 437.525
BUGSAT 1 26 May 02:27:04 02:31:04 54° 289° (WNW) 02:35:00 437.445
DANDE 26 May 02:28:46 02:34:50 23° 282° (WNW) 02:40:46 436.750
SWISSCUBE 26 May 02:32:17 02:36:57 59° 70° (ENE) 02:41:40 437.505
POPSAT HIP 1 26 May 02:37:17 02:40:39 24° 298° (WNW) 02:44:01 437.405
ITUPSAT 1 26 May 02:37:24 02:42:04 59° 70° (ENE) 02:46:47 437.325
QB50P1 26 May 02:37:54 02:41:14 23° 298° (WNW) 02:44:34 145.935-145.965
QB50P2 26 May 02:39:35 02:42:50 22° 299° (WNW) 02:46:03 145.880/145.840
POLYITAN 1 26 May 02:42:04 02:45:16 21° 299° (WNW) 02:48:27 437.675
ISS 26 May 02:43:00 02:46:17 80° 3° (N) 02:49:33 145.825
PHONESAT 2.4 26 May 02:45:48 02:47:04 12° 185° (S) 02:48:20 2401.200-2431.200
TISAT 1 26 May 02:45:53 02:49:29 27° 265° (W) 02:53:07 437.305
Oscar 19 26 May 02:51:47 02:56:44 43° 98° (E) 03:01:36 437.125/150
KKS-1 26 May 02:53:14 02:55:54 16° 56° (NE) 02:58:32 437.445
MOZHAYETS 4 26 May 02:55:44 02:57:44 13° 53° (NE) 02:59:43
NANOSAT C BR1 26 May 02:57:55 03:00:38 17° 302° (WNW) 03:03:19 145.865
Cosmos 2499 26 May 02:59:08 03:02:44 14° 317° (NW) 03:06:27 435.465 / 435.565
Gurwin Techsat 1B 26 May 02:59:42 03:04:02 25° 92° (E) 03:08:21 435.225
BEESAT 26 May 03:02:09 03:06:56 85° 256° (WSW) 03:11:44 436.000
JAS-2 26 May 03:04:50 03:12:37 87° 286° (WNW) 03:19:38 435.910
Cosmos 2491 26 May 03:07:30 03:10:31 12° 66° (ENE) 03:13:32 435.465 / 435.565
ITAMSAT 1 26 May 03:29:57 03:33:36 19° 89° (E) 03:37:14 435.822/435.867
STARS 26 May 03:33:24 03:36:32 19° 59° (ENE) 03:39:41 437.465
SO-50 26 May 03:54:55 03:59:34 40° 324° (NW) 04:04:10 436.795
YUBILEINY 26 May 03:56:17 04:04:55 58° 72° (ENE) 04:13:33 435.215
RS-15 26 May 04:00:00 04:12:04 66° 240° (WSW) 04:24:07 29.354- 29.394
Cosmos 2504 26 May 04:11:17 04:18:03 27° 58° (ENE) 04:25:06 435.465 / 435.565
SWISSCUBE 26 May 04:11:33 04:15:09 21° 269° (W) 04:18:47 437.505
ITUPSAT 1 26 May 04:16:42 04:20:18 21° 269° (W) 04:23:57 437.325
CUBESAT XI-V 26 May 04:16:43 04:18:08 11° 51° (NE) 04:19:33 437.345
ISS 26 May 04:19:29 04:22:41 52° 203° (SSW) 04:25:52 145.825
KKS-1 26 May 04:27:23 04:31:52 86° 253° (WSW) 04:36:23 437.445
MOZHAYETS 4 26 May 04:29:35 04:34:06 73° 73° (ENE) 04:38:42
Oscar 19 26 May 04:31:20 04:35:58 34° 298° (WNW) 04:40:32 437.125/150
AO-7 26 May 04:36:32 04:43:49 32° 93° (E) 04:51:02 29.400- 29.500
Gurwin Techsat 1B 26 May 04:39:08 04:44:23 59° 291° (WNW) 04:49:36 435.225
BEESAT 26 May 04:43:21 04:45:29 13° 274° (W) 04:47:36 436.000
JAS-2 26 May 04:50:33 04:56:38 26° 310° (NW) 05:02:22 435.910
Cosmos 2491 26 May 04:56:43 05:05:10 53° 89° (E) 05:13:37 435.465 / 435.565
STARS 26 May 05:08:07 05:12:30 64° 257° (WSW) 05:16:54 437.465
ITAMSAT 1 26 May 05:08:26 05:13:39 76° 290° (WNW) 05:18:53 435.822/435.867
SO-50 26 May 05:37:51 05:41:17 19° 347° (NNW) 05:44:40 436.795
HORYU 2 26 May 05:40:36 05:43:57 21° 92° (E) 05:47:18 437.375
CUBESAT XI-V 26 May 05:49:59 05:54:35 60° 71° (ENE) 05:59:15 437.345
YUBILEINY 26 May 05:53:33 06:01:27 40° 275° (W) 06:09:22 435.215
ISS 26 May 05:56:52 05:58:34 13° 221° (SW) 06:00:16 145.825
Cosmos 2504 26 May 06:04:14 06:12:32 89° 261° (W) 06:21:19 435.465 / 435.565
KKS-1 26 May 06:07:26 06:09:09 12° 274° (W) 06:10:51 437.445
MOZHAYETS 4 26 May 06:09:01 06:11:50 16° 272° (W) 06:14:40
RS-15 26 May 06:14:16 06:22:05 20° 264° (W) 06:29:55 29.354- 29.394
Gurwin Techsat 1B 26 May 06:20:59 06:23:19 13° 312° (NW) 06:25:39 435.225
STRAND 1 26 May 06:28:00 06:31:41 21° 56° (NE) 06:35:25 437.568
AO-7 26 May 06:28:58 06:37:20 75° 294° (WNW) 06:45:40 29.400- 29.500
CUTE-I 26 May 06:32:58 06:34:46 12° 84° (E) 06:36:33 437.470
ITAMSAT 1 26 May 06:49:18 06:52:20 16° 309° (NW) 06:55:23 435.822/435.867
BRITE-PL 26 May 06:52:39 06:56:28 20° 87° (E) 07:00:05 437.365/2234.400
Cosmos 2491 26 May 06:53:49 07:02:13 46° 293° (WNW) 07:10:39 435.465 / 435.565
NOAA 18 26 May 07:08:42 07:13:18 27° 93° (E) 07:17:52 137.9125
HORYU 2 26 May 07:16:30 07:20:50 53° 291° (WNW) 07:25:10 437.375
SO-50 26 May 07:20:07 07:23:29 18° 12° (NNE) 07:26:47 436.795
Cubesat XI-IV 26 May 07:23:57 07:28:39 30° 94° (E) 07:33:20 437.490
NOAA 15 26 May 07:25:07 07:30:10 41° 98° (E) 07:35:09 137.62
GOMX 1 26 May 07:26:15 07:29:34 18° 87° (E) 07:32:43 467.674
CUBESAT XI-V 26 May 07:28:56 07:32:23 20° 270° (W) 07:35:52 437.345
AO-85 26 May 07:39:38 07:44:49 46° 122° (ESE) 07:49:52 145.980
LilacSat-2 26 May 07:41:10 07:44:42 36° 97° (E) 07:48:12 437.200
GONETS M04 26 May 07:50:09 07:56:02 19° 48° (NE) 08:01:54
Cosmos 2504 26 May 07:58:46 08:04:56 24° 282° (WNW) 08:11:21 435.465 / 435.565
STRAND 1 26 May 08:05:15 08:10:21 77° 256° (WSW) 08:15:30 437.568
CUTE-I 26 May 08:10:28 08:15:50 69° 103° (ESE) 08:21:10 437.470
PRISM 26 May 08:13:15 08:16:51 29° 64° (ENE) 08:20:30 437.425
AO-7 26 May 08:22:31 08:28:55 25° 318° (NW) 08:35:20 29.400- 29.500
DOVE 4 26 May 08:22:58 08:26:51 28° 93° (E) 08:30:33 437.250
BRITE-PL 26 May 08:30:15 08:35:34 69° 288° (WNW) 08:40:27 437.365/2234.400
AIST 1 26 May 08:47:09 08:51:15 37° 72° (ENE) 08:55:17
NOAA 18 26 May 08:48:57 08:54:19 57° 292° (WNW) 08:59:40 137.9125
Cosmos 2499 26 May 08:50:40 08:57:22 25° 56° (ENE) 09:04:16 435.465 / 435.565
Cosmos 2491 26 May 08:57:53 09:02:00 14° 321° (NW) 09:06:08 435.465 / 435.565
SO-50 26 May 09:00:42 09:05:13 39° 36° (NE) 09:09:36 436.795
GOMX 1 26 May 09:03:23 09:08:15 66° 288° (WNW) 09:12:44 467.674
Cubesat XI-IV 26 May 09:03:48 09:08:57 49° 293° (WNW) 09:14:06 437.490
NOAA 15 26 May 09:05:04 09:09:53 36° 297° (WNW) 09:14:41 137.62
CINEMA 3 26 May 09:05:29 09:08:52 23° 92° (E) 09:12:11 145.822/145.860
LilacSat-2 26 May 09:15:48 09:18:52 23° 296° (WNW) 09:21:54 437.200
AO-85 26 May 09:20:12 09:25:26 46° 322° (NW) 09:30:26 145.980
ANTELSAT 26 May 09:27:16 09:29:11 13° 55° (NE) 09:31:07 437.575/2403.000
CANX-2 26 May 09:30:04 09:34:11 43° 98° (E) 09:38:17 2200.000
HO-68 26 May 09:32:18 09:39:11 46° 99° (E) 09:46:01 435.675
SEEDS 26 May 09:36:05 09:39:58 33° 96° (E) 09:43:50 437.485
GONETS M04 26 May 09:46:14 09:54:56 66° 75° (ENE) 10:03:33
PRISM 26 May 09:48:18 09:52:06 34° 263° (W) 09:55:58 437.425
STRAND 1 26 May 09:48:21 09:50:26 12° 275° (W) 09:52:31 437.568
CUTE-I 26 May 09:51:15 09:55:26 24° 303° (WNW) 09:59:38 437.470
Oscar 11 26 May 09:56:15 09:58:51 15° 88° (E) 10:01:28 145.826/435.025
CUTE 1.7 + AOD 2 26 May 09:57:33 10:01:51 72° 102° (ESE) 10:06:08 437.475
DOVE 4 26 May 10:00:30 10:04:43 38° 294° (WNW) 10:08:42 437.250
PCSat 26 May 10:04:44 10:07:36 15° 104° (ESE) 10:10:30 145.827
CUBEBUG 2 26 May 10:05:15 10:08:57 30° 95° (E) 10:12:40 437.445
ZACube-1 26 May 10:07:14 10:09:58 17° 90° (E) 10:12:44 437.345
BRITE-PL 26 May 10:10:15 10:13:02 14° 310° (NW) 10:15:43 437.365/2234.400
AUBIESAT-1 26 May 10:14:15 10:17:37 83° 109° (ESE) 10:20:55 437.475
AO-7 26 May 10:16:46 10:18:50 11° 344° (NNW) 10:20:53 29.400- 29.500
M-CUBED/EXP-1 PRIME 26 May 10:19:37 10:22:58 68° 292° (WNW) 10:26:12 437.505
UNISAT 6 26 May 10:20:06 10:24:02 34° 67° (ENE) 10:27:57 437.425
COMPASS 1 26 May 10:24:55 10:29:09 74° 102° (ESE) 10:33:22 437.405
AIST 1 26 May 10:25:02 10:28:43 27° 271° (W) 10:32:21
POPSAT HIP 1 26 May 10:26:31 10:27:21 10° 53° (NE) 10:28:10 437.405
QB50P1 26 May 10:26:53 10:27:53 11° 53° (NE) 10:28:54 145.935-145.965
TIGRISAT 26 May 10:28:05 10:32:06 38° 67° (ENE) 10:36:06 435.000
QB50P2 26 May 10:28:09 10:29:35 12° 54° (NE) 10:31:02 145.880/145.840
AAUSAT CUBESAT 2 26 May 10:28:59 10:33:12 67° 103° (ESE) 10:37:22 437.432
POLYITAN 1 26 May 10:30:31 10:32:02 12° 54° (NE) 10:33:32 437.675
NOAA 18 26 May 10:31:29 10:33:55 13° 313° (NW) 10:36:22 137.9125
UWE-3 26 May 10:36:54 10:40:54 45° 98° (E) 10:44:56 435.000/436.395/437.385
SO-50 26 May 10:41:17 10:45:50 46° 237° (WSW) 10:50:13 436.795
CINEMA 3 26 May 10:42:14 10:46:14 42° 292° (WNW) 10:50:09 145.822/145.860
Cosmos 2499 26 May 10:43:17 10:51:47 84° 79° (E) 11:00:40 435.465 / 435.565
GOMX 1 26 May 10:43:23 10:45:20 12° 310° (NW) 10:47:15 467.674
NANOSAT C BR1 26 May 10:44:39 10:47:00 15° 57° (ENE) 10:49:21 145.865
FUNcube-1 26 May 10:45:24 10:49:16 36° 97° (E) 10:53:10 145.935
Cubesat XI-IV 26 May 10:46:24 10:47:52 11° 314° (NW) 10:49:20 437.490
CUSAT 1 26 May 10:59:27 11:00:51 11° 68° (ENE) 11:02:18 437.405
ANTELSAT 26 May 11:00:54 11:05:16 82° 72° (ENE) 11:09:34 437.575/2403.000
AO-85 26 May 11:03:10 11:07:06 20° 344° (NNW) 11:10:53 145.980
CANX-2 26 May 11:06:21 11:09:51 25° 297° (WNW) 11:13:22 2200.000
O/OREOS (USA 219) 26 May 11:06:58 11:11:27 60° 113° (ESE) 11:15:56 437.305
DELFI C3 26 May 11:11:37 11:15:27 39° 98° (E) 11:19:15 145.870
SEEDS 26 May 11:11:53 11:15:39 31° 294° (WNW) 11:19:23 437.485
HO-68 26 May 11:20:10 11:26:57 47° 300° (WNW) 11:33:43 435.675
DUCHIFAT 1 26 May 11:22:23 11:26:00 28° 64° (ENE) 11:29:38 145.980
Oscar 11 26 May 11:31:09 11:35:30 71° 287° (WNW) 11:39:49 145.826/435.025
CUTE 1.7 + AOD 2 26 May 11:34:28 11:37:13 17° 301° (WNW) 11:39:58 437.475
JAS-2 26 May 11:38:12 11:43:57 24° 48° (NE) 11:49:50 435.910
CUBEBUG 2 26 May 11:41:54 11:45:36 32° 294° (WNW) 11:49:18 437.445
ZACube-1 26 May 11:42:33 11:46:39 59° 289° (WNW) 11:50:48 437.345
GONETS M04 26 May 11:43:40 11:51:15 35° 278° (W) 11:58:48
PCSat 26 May 11:44:42 11:50:07 76° 124° (SE) 11:55:35 145.827
BUGSAT 1 26 May 11:46:50 11:50:19 26° 63° (ENE) 11:53:47 437.445
AUBIESAT-1 26 May 11:50:36 11:51:37 11° 310° (NW) 11:52:38 437.475
UNISAT 6 26 May 11:56:57 12:00:49 30° 265° (W) 12:04:39 437.425
POPSAT HIP 1 26 May 11:58:08 12:02:20 65° 72° (ENE) 12:06:33 437.405
QB50P1 26 May 11:58:40 12:02:53 67° 73° (ENE) 12:07:06 145.935-145.965
QB50P2 26 May 12:00:26 12:04:40 73° 73° (ENE) 12:08:55 145.880/145.840
COMPASS 1 26 May 12:01:38 12:04:13 16° 302° (WNW) 12:06:49 437.405
POLYITAN 1 26 May 12:02:53 12:07:07 75° 73° (ENE) 12:11:21 437.675
HUMSAT D 26 May 12:03:19 12:07:27 64° 102° (ESE) 12:11:36 437.325/437.525
TIGRISAT 26 May 12:05:13 12:08:55 27° 266° (W) 12:12:36 435.000
AAUSAT CUBESAT 2 26 May 12:05:29 12:08:15 17° 301° (WNW) 12:11:00 437.432
AO-7 26 May 12:06:40 12:07:54 10° 12° (NNE) 12:09:09 29.400- 29.500
50 SAT 26 May 12:13:25 12:15:04 12° 89° (E) 12:16:43 437.505
